Flag for Romania Weather past 2 weeks in Timișoara, Romania

Now
73 °F

Passing clouds.


Feels Like: 76 °F
Forecast: 67 / 81 °F
Wind: 7 mph from East

Location: Timisoara Airport

Current Time: Sep 3, 2014 at 10:32:21 AM

Latest Report: Sep 3, 2014 at 10:00 AM


Visibility: N/A

Pressure: 29.83 "Hg

Humidity: 69%

Dew point: 63 °F

Location of TimișoaraLocation

Historic Weather in Timișoara — Graph

°F

Timișoara temperature yesterday

Maximum temperature yesterday: 82 °F (at 3:00 PM)
Minimum temperature yesterday: 59 °F (at 4:30 AM)
Average temperature yesterday: 70 °F

Past Weeks' High & Low Weather Summary

 TemperatureHumidityPressure
High86 °F (Aug 20, 3:30 PM)100% (Aug 20, 2:30 AM)30.15 "Hg (Aug 20, 2:30 AM)
Low46 °F (Aug 29, 6:30 AM)31% (Aug 25, 6:00 PM)29.74 "Hg (Sep 1, 9:00 AM)
Average68 °F76%29.95 "Hg
* Reported Aug 19 9:00 AM — Sep 3 9:30 AM, Timișoara, Weather by CustomWeather, © 2014

Note: Actual official high and low records may vary slightly from our data, if they occured in-between our weather recording intervals... More about our weather records

Advertising

Timișoara weather history for previous 24 hours

 ConditionsComfort  
Time TempWeatherWind HumidityBarometerVisibility
9:30 AM
Sep 3
72 °FPassing clouds.7 mph73%29.80 "HgN/A
9:00 AM72 °FPassing clouds.8 mph73%29.80 "HgN/A
8:30 AM72 °FPassing clouds.7 mph73%29.80 "HgN/A
8:00 AM68 °FPassing clouds.5 mph88%29.80 "HgN/A
7:30 AM64 °FClear.6 mph94%29.80 "Hg10 mi
7:00 AM64 °FPassing clouds.6 mph94%29.80 "HgN/A
6:30 AM63 °FPassing clouds.3 mph100%29.77 "HgN/A
6:00 AM66 °FClear.No wind88%29.77 "Hg10 mi
5:30 AM64 °FClear.5 mph94%29.80 "Hg10 mi
5:00 AM64 °FPassing clouds.3 mph94%29.77 "HgN/A
4:30 AM66 °FPassing clouds.3 mph94%29.80 "HgN/A
4:00 AM66 °FPassing clouds.3 mph94%29.80 "HgN/A
3:30 AM64 °FClear.5 mph100%29.80 "Hg10 mi
3:00 AM63 °FClear.3 mph100%29.80 "Hg10 mi
2:30 AM63 °FClear.1 mph94%29.80 "Hg10 mi
2:00 AM63 °FClear.3 mph94%29.80 "Hg10 mi
1:30 AM64 °FClear.5 mph94%29.80 "Hg10 mi
1:00 AM68 °FClear.2 mph83%29.80 "Hg10 mi
12:30 AM70 °FClear.2 mph78%29.80 "Hg10 mi
12:00 AM68 °FClear.3 mph88%29.80 "Hg10 mi
11:30 PM
Sep 2
70 °FClear.2 mph83%29.80 "Hg10 mi
11:00 PM68 °FClear.2 mph88%29.80 "Hg10 mi
10:30 PM70 °FClear.2 mph83%29.80 "Hg10 mi
10:00 PM72 °FClear.No wind78%29.80 "Hg10 mi
9:30 PM70 °FClear.3 mph88%29.80 "Hg10 mi
9:00 PM70 °FSunny.3 mph88%29.80 "Hg10 mi
8:30 PM73 °FSunny.2 mph78%29.80 "Hg10 mi
8:00 PM75 °FSunny.2 mph69%29.80 "Hg10 mi
7:30 PM77 °FSunny.3 mph65%29.77 "Hg10 mi
7:00 PM79 °FPassing clouds.3 mph61%29.77 "HgN/A
6:30 PM81 °FPassing clouds.3 mph54%29.77 "HgN/A
6:00 PM79 °FPassing clouds.3 mph58%29.77 "HgN/A
5:30 PM81 °FPassing clouds.5 mph51%29.77 "HgN/A
5:00 PM81 °FPassing clouds.3 mph54%29.77 "HgN/A
4:30 PM81 °FSunny.2 mph51%29.77 "Hg10 mi
4:00 PM81 °FPassing clouds.3 mph54%29.77 "HgN/A
3:30 PM81 °FSunny.2 mph51%29.77 "Hg10 mi
3:00 PM82 °FPassing clouds.3 mph48%29.77 "HgN/A
2:30 PM81 °FSunny.2 mph51%29.77 "Hg10 mi
2:00 PM81 °FPassing clouds.5 mph51%29.80 "HgN/A
1:30 PM81 °FSunny.2 mph51%29.77 "Hg10 mi
1:00 PM79 °FSunny.2 mph54%29.80 "Hg10 mi
12:30 PM79 °FPassing clouds.5 mph58%29.80 "HgN/A
12:00 PM79 °FPassing clouds.5 mph54%29.80 "HgN/A
11:30 AM77 °FPassing clouds.6 mph61%29.80 "HgN/A
11:00 AM73 °FPassing clouds.5 mph69%29.80 "HgN/A
10:30 AM72 °FPassing clouds.7 mph78%29.80 "HgN/A
10:00 AM70 °FPassing clouds.6 mph78%29.80 "HgN/A
Weather by CustomWeather, © 2014

See weather overviewHow to use our weather pages